Weather in Stafford

United Kingdom     52˚48′06″N   2˚06′49″W
temp.,
°C
wind,
m/s
gust,
m/s
humid.,
%
clouds,
%
prec.,
mm/h
press.,
hPa
HPBL,
m
3 december, thu
thu300:00+4˚wsw6138483 0.0 1006476
03:00+4˚sw61091100 0.3 1001574
06:00+4˚sw4795100 1.6 996395
09:00+4˚ssw4792100 0.8 991490
12:00+4˚sse2392100 0.9 986282
15:00+4˚ne2391100 0.0 981290
18:00+4˚n2594100 0.1 979321
21:00+3˚nnw3594100 0.1 978342
4 december, fri
fri400:00+2˚nw51092100 0.1 978439
03:00+1˚wnw499293 0.0 977329
06:00nw5129453 0.0 978456
09:00+1˚wnw4119235 0.0 978567
12:00+4˚w7117367 0.0 9771025
15:00+3˚wsw377888 0.0 977265
18:00+1˚ssw369150 0.0 979138
21:00+1˚s4794100 0.0 982157
5 december, sat
sat500:00sse1289100 0.0 98441
03:00se238981 0.0 98742
06:00−1˚e369248 0.0 989120
09:00e46893 0.0 991156
12:00+3˚ene468050 0.0 993281
15:00+2˚ne4787100 0.0 994236
18:00ene3594100 0.0 997143
21:00nne229437 0.0 99823
6 december, sun
sun600:00nnw239338 0.0 99939
03:00nw229214 0.0 99928
06:00wnw229325 0.0 99925
09:00nw11940 0.0 100021
12:00+3˚sw23830 0.0 999251
15:00+2˚ssw22904 0.0 99930
18:00sw229227 0.0 100022
21:00sse239331 0.0 100139
7 december, mon
mon700:00+1˚s239132 0.0 100190
03:00+1˚s2589100 0.0 1000174
06:00+1˚s239399 0.0 1001101
09:00s229545 0.0 100046
12:00+2˚ssw358724 0.0 999287
15:00+2˚sse349436 0.0 998147
18:00+2˚sse269360 0.0 998237
21:00+1˚se239451 0.0 99746